Find Starlink 11307

NORAD ID: 61210 Int'l Des: 2024-171 Owner: SPXS Country: US Constellation: starlink operational
LEOCIRCULAR

Live-Position

3D-Globus wird geladen...

Über Starlink 11307

Beschreibung wird geladen...

Nächste Überflüge

Passes for default location (London). Set your location on the main map for personalized predictions.

Höhenverlauf

Loading altitude history...

Zweizeiliger Elementsatz

1 61210U 24171L 26124.65380784 .00008186 00000-0 72349-4 0 9993
2 61210 53.1589 260.7309 0001275 61.3828 298.7318 15.69712401 93188
Epoch: 4. Mai 2026 • Age: 26 hours

Aktueller Status

Höhe 364.6 km
Geschwindigkeit 7.70 km/s
Subsatellitenpunkt 49.76°N, 176.21°W
Startdatum 20. Sept. 2024
Alter 1.6 years
Typ internet

Technische Details

Klassifizierung Payload
Masse 960.00 kg
Trockenmasse 910.00 kg
Gesamtmasse 960.00 kg
Länge 0.30 m
Durchmesser 4.10 m
Spannweite 29.00 m
Form Box + pan
Hersteller SPXS
Bus-Typ Starlink V2MD
Phasenstatus In Orbit
Besitzer/Staat SPXS/US

Most Searched